When you browse on this site, cookies collect data to enhance your experience and personalize the content and advertising you see.
Visit our Privacy Policy to learn more. By continuing to use the site, you agree to this use of cookies and data.
  • In Switzerland
  • List of Countries
  • For 7 days
  • Water Temperature
  • Satellite Maps
  • Weather Map
  • Weather Widgets
  • user-avatar
    Login

    Hourly Weather Novye Zasimovichi

    Today, 17 November, Saturday

    Time Temperature Precipitation Wind Pressure Humidity
    00:00 -2°C° 0 mm 2 mps 765 mmHg 76%
    01:00 -2°C° 0 mm 2 mps 765 mmHg 73%
    02:00 -2°C° 0 mm 2 mps 766 mmHg 69%
    03:00 -2°C° 0 mm 2 mps 765 mmHg 67%
    04:00 -2°C° 0 mm 2 mps 765 mmHg 65%
    05:00 -2°C° 0 mm 2 mps 765 mmHg 63%
    06:00 -2°C° 0 mm 2 mps 765 mmHg 61%
    07:00 -2°C° 0 mm 2 mps 765 mmHg 59%
    08:00 -2°C° 0 mm 2 mps 765 mmHg 57%
    09:00 -1°C° 0 mm 2 mps 765 mmHg 51%
    10:00 +1°C° 0 mm 2 mps 765 mmHg 46%
    11:00 +1°C° 0 mm 3 mps 765 mmHg 41%
    12:00 +2°C° 0 mm 2 mps 765 mmHg 39%
    13:00 +3°C° 0 mm 2 mps 764 mmHg 38%
    14:00 +3°C° 0 mm 2 mps 764 mmHg 36%
    15:00 +2°C° 0 mm 2 mps 763 mmHg 40%
    16:00 +1°C° 0 mm 2 mps 763 mmHg 44%
    17:00 +1°C° 0 mm 1 mps 763 mmHg 48%
    18:00 +1°C° 0 mm 1 mps 762 mmHg 48%
    19:00 +1°C° 0 mm 1 mps 762 mmHg 47%
    20:00 +1°C° 0 mm 1 mps 762 mmHg 47%
    21:00 +1°C° 0 mm 1 mps 762 mmHg 46%
    22:00 +1°C° 0 mm 1 mps 761 mmHg 45%
    23:00 0°C° 0 mm 0 mps 761 mmHg 44%

    Tomorrow, 18 November, Sunday

    Time Temperature Precipitation Wind Pressure Humidity
    00:00 +1°C° 0 mm 1 mps 761 mmHg 44%
    01:00 +1°C° 0 mm 1 mps 760 mmHg 44%
    02:00 +1°C° 0 mm 1 mps 759 mmHg 44%
    03:00 -2°C° 0 mm 2 mps 759 mmHg 46%
    04:00 -2°C° 0 mm 2 mps 758 mmHg 48%
    05:00 -2°C° 0 mm 2 mps 757 mmHg 50%
    06:00 -1°C° 0 mm 2 mps 757 mmHg 53%
    07:00 -1°C° 0 mm 2 mps 756 mmHg 57%
    08:00 -1°C° 0 mm 2 mps 755 mmHg 61%
    09:00 +1°C° 0.2 mm 2 mps 755 mmHg 68%
    10:00 +1°C° 0.2 mm 2 mps 754 mmHg 76%
    11:00 +1°C° 0.2 mm 2 mps 754 mmHg 84%
    12:00 +1°C° 0.1 mm 2 mps 754 mmHg 85%
    13:00 +2°C° 0.1 mm 2 mps 753 mmHg 86%
    14:00 +3°C° 0.1 mm 1 mps 753 mmHg 88%
    15:00 +3°C° 0 mm 1 mps 753 mmHg 90%
    16:00 +2°C° 0 mm 2 mps 753 mmHg 93%
    17:00 +2°C° 0 mm 2 mps 753 mmHg 95%
    18:00 +2°C° 0 mm 2 mps 752 mmHg 95%
    19:00 +2°C° 0 mm 2 mps 752 mmHg 95%
    20:00 +2°C° 0 mm 2 mps 752 mmHg 95%
    21:00 +1°C° 0 mm 2 mps 752 mmHg 95%
    22:00 +1°C° 0 mm 2 mps 752 mmHg 95%
    23:00 +1°C° 0 mm 2 mps 752 mmHg 96%

    Day after tomorrow, 19 November, Monday

    Time Temperature Precipitation Wind Pressure Humidity
    00:00 +1°C° 0 mm 2 mps 752 mmHg 96%
    01:00 +1°C° 0 mm 2 mps 752 mmHg 96%
    02:00 +1°C° 0 mm 2 mps 752 mmHg 96%
    03:00 +1°C° 0 mm 2 mps 752 mmHg 96%
    04:00 +1°C° 0 mm 2 mps 752 mmHg 95%
    05:00 +1°C° 0 mm 2 mps 752 mmHg 95%
    06:00 +1°C° 0 mm 2 mps 752 mmHg 96%
    07:00 -1°C° 0 mm 2 mps 752 mmHg 96%
    08:00 -1°C° 0 mm 2 mps 752 mmHg 96%
    09:00 0°C° 0 mm 3 mps 753 mmHg 93%
    10:00 +1°C° 0 mm 3 mps 753 mmHg 90%
    11:00 0°C° 0 mm 4 mps 753 mmHg 87%
    12:00 0°C° 0 mm 4 mps 753 mmHg 85%
    13:00 0°C° 0 mm 4 mps 754 mmHg 84%
    14:00 0°C° 0 mm 4 mps 754 mmHg 83%
    15:00 0°C° 0 mm 4 mps 754 mmHg 84%
    16:00 0°C° 0 mm 4 mps 754 mmHg 85%
    17:00 -1°C° 0 mm 4 mps 754 mmHg 87%
    18:00 -1°C° 0 mm 4 mps 754 mmHg 86%
    19:00 -1°C° 0 mm 5 mps 754 mmHg 86%
    20:00 -1°C° 0 mm 5 mps 754 mmHg 86%
    21:00 -1°C° 0 mm 5 mps 755 mmHg 85%
    22:00 -1°C° 0 mm 5 mps 755 mmHg 84%
    23:00 -2°C° 0 mm 4 mps 755 mmHg 83%

    20 November, Tuesday

    Time Temperature Precipitation Wind Pressure Humidity
    00:00 -2°C° 0 mm 4 mps 756 mmHg 84%
    01:00 -2°C° 0 mm 4 mps 756 mmHg 85%
    02:00 -2°C° 0 mm 4 mps 756 mmHg 86%
    03:00 -3°C° 0 mm 4 mps 756 mmHg 86%
    04:00 -3°C° 0 mm 4 mps 755 mmHg 86%
    05:00 -3°C° 0 mm 4 mps 755 mmHg 87%
    06:00 -3°C° 0 mm 4 mps 755 mmHg 87%
    07:00 -3°C° 0 mm 4 mps 755 mmHg 88%
    08:00 -3°C° 0 mm 4 mps 755 mmHg 88%
    09:00 -3°C° 0 mm 4 mps 755 mmHg 85%
    10:00 -2°C° 0 mm 4 mps 755 mmHg 82%
    11:00 -1°C° 0 mm 5 mps 755 mmHg 79%
    12:00 -1°C° 0 mm 4 mps 755 mmHg 77%
    13:00 -1°C° 0 mm 4 mps 755 mmHg 75%
    14:00 0°C° 0 mm 4 mps 755 mmHg 73%
    15:00 -1°C° 0 mm 4 mps 754 mmHg 77%
    16:00 -2°C° 0 mm 4 mps 754 mmHg 81%
    17:00 -3°C° 0 mm 4 mps 754 mmHg 86%
    18:00 -3°C° 0 mm 4 mps 754 mmHg 86%
    19:00 -4°C° 0 mm 5 mps 754 mmHg 86%
    20:00 -4°C° 0 mm 5 mps 753 mmHg 86%
    21:00 -4°C° 0 mm 5 mps 753 mmHg 86%
    22:00 -5°C° 0 mm 5 mps 753 mmHg 86%
    23:00 -4°C° 0 mm 4 mps 753 mmHg 86%

    21 November, Wednesday

    Time Temperature Precipitation Wind Pressure Humidity
    00:00 -4°C° 0 mm 4 mps 753 mmHg 86%
    01:00 -4°C° 0 mm 4 mps 752 mmHg 86%
    02:00 -4°C° 0 mm 4 mps 752 mmHg 87%
    03:00 -5°C° 0 mm 5 mps 752 mmHg 87%
    04:00 -5°C° 0 mm 5 mps 752 mmHg 87%
    05:00 -5°C° 0 mm 5 mps 751 mmHg 87%
    06:00 -5°C° 0 mm 5 mps 751 mmHg 86%
    07:00 -5°C° 0 mm 5 mps 751 mmHg 86%
    08:00 -5°C° 0 mm 5 mps 751 mmHg 85%
    09:00 -4°C° 0 mm 5 mps 751 mmHg 83%
    10:00 -4°C° 0 mm 5 mps 752 mmHg 80%
    11:00 -3°C° 0 mm 6 mps 752 mmHg 78%
    12:00 -2°C° 0 mm 5 mps 752 mmHg 76%
    13:00 -1°C° 0 mm 5 mps 752 mmHg 75%
    14:00 -1°C° 0 mm 5 mps 752 mmHg 74%
    15:00 -1°C° 0 mm 5 mps 752 mmHg 76%
    16:00 -2°C° 0 mm 5 mps 752 mmHg 78%
    17:00 -2°C° 0 mm 5 mps 752 mmHg 80%
    18:00 -2°C° 0 mm 5 mps 752 mmHg 81%
    19:00 -4°C° 0 mm 5 mps 752 mmHg 82%
    20:00 -4°C° 0 mm 5 mps 753 mmHg 83%
    21:00 -4°C° 0 mm 5 mps 753 mmHg 83%
    22:00 -3°C° 0 mm 4 mps 753 mmHg 84%
    23:00 -3°C° 0 mm 4 mps 753 mmHg 84%

    22 November, Thursday

    Time Temperature Precipitation Wind Pressure Humidity
    00:00 -3°C° 0 mm 4 mps 754 mmHg 84%
    01:00 -3°C° 0 mm 4 mps 754 mmHg 85%
    02:00 -3°C° 0 mm 4 mps 754 mmHg 85%
    03:00 -3°C° 0 mm 4 mps 754 mmHg 85%
    04:00 -4°C° 0 mm 4 mps 754 mmHg 85%
    05:00 -4°C° 0 mm 4 mps 754 mmHg 84%
    06:00 -4°C° 0 mm 4 mps 754 mmHg 84%
    07:00 -4°C° 0 mm 4 mps 755 mmHg 84%
    08:00 -4°C° 0 mm 4 mps 755 mmHg 84%
    09:00 -3°C° 0 mm 4 mps 755 mmHg 81%
    10:00 -3°C° 0 mm 4 mps 755 mmHg 78%
    11:00 -2°C° 0 mm 4 mps 756 mmHg 75%
    12:00 -2°C° 0 mm 4 mps 756 mmHg 73%
    13:00 -1°C° 0 mm 3 mps 756 mmHg 72%
    14:00 0°C° 0 mm 3 mps 756 mmHg 70%
    15:00 -1°C° 0 mm 3 mps 756 mmHg 74%
    16:00 -2°C° 0 mm 3 mps 756 mmHg 78%
    17:00 -2°C° 0 mm 3 mps 756 mmHg 82%
    18:00 -4°C° 0 mm 3 mps 756 mmHg 82%
    19:00 -4°C° 0 mm 3 mps 756 mmHg 82%
    20:00 -4°C° 0 mm 3 mps 757 mmHg 83%
    21:00 -4°C° 0 mm 3 mps 757 mmHg 82%
    22:00 -3°C° 0 mm 2 mps 757 mmHg 82%
    23:00 -3°C° 0 mm 2 mps 757 mmHg 82%
    Show more